EW7448 Weather Reports


Display with metric or nautical units.
time (UTC)temp
F
wind
direction
speed
MPH
gust
MPH
rain 1hr
in
rain 24hr
in
rain mn
in
humidity
%
barometer
mb
20260905040017 78 221 0.0 0.0 0.00 0.03 0.00 97 1013.5
20260905034508 78 221 0.0 0.0 0.01 0.03 0.03 97 1013.5
20260905033008 78 221 0.0 1.0 0.01 0.03 0.03 97 1013.6
20260905031508 78 221 0.0 0.0 0.01 0.03 0.03 97 1013.5
20260905030007 79 221 0.0 0.0 0.01 0.03 0.03 96 1013.5
20260905024512 79 221 0.0 0.0 0.00 0.02 0.02 96 1013.4
20260905023007 79 221 0.0 0.0 0.00 0.02 0.02 96 1013.2
20260905021507 79 221 0.0 0.0 0.00 0.02 0.02 96 1013.3
20260905020006 79 221 0.0 0.0 0.00 0.02 0.02 96 1013.3
20260905014505 79 221 0.0 0.0 0.00 0.02 0.02 96 1013.3
20260905013004 79 221 0.0 0.0 0.00 0.02 0.02 96 1013.3
20260905011503 79 221 0.0 0.0 0.00 0.02 0.02 96 1013.4
20260905010004 79 221 0.0 0.0 0.00 0.02 0.02 96 1013.2
20260905004504 79 221 0.0 0.0 0.02 0.02 0.02 95 1013.0
20260905003003 79 221 0.0 0.0 0.02 0.02 0.02 94 1013.0
20260905001502 80 221 0.0 0.0 0.02 0.02 0.02 93 1012.8
20260905000002 81 154 0.0 3.0 0.02 0.02 0.02 90 1012.9
20260904234502 85 188 1.0 3.0 0.00 0.00 0.00 87 1012.9
20260904233002 85 141 0.0 2.0 0.00 0.00 0.00 89 1012.5
20260904231600 86 139 0.0 3.0 0.00 0.00 0.00 88 1012.4
20260904230059 86 172 0.0 4.0 0.00 0.00 0.00 87 1012.2
20260904224558 86 174 0.0 3.0 0.00 0.00 0.00 87 1012.1
20260904223057 87 225 0.0 4.0 0.00 0.00 0.00 85 1011.8
20260904221605 87 186 0.0 4.0 0.00 0.00 0.00 84 1011.5
20260904220059 88 154 0.0 4.0 0.00 0.00 0.00 84 1011.5
20260904214602 88 162 0.0 4.0 0.00 0.00 0.00 83 1011.7
20260904213054 89 219 0.0 6.0 0.00 0.00 0.00 83 1011.9
20260904211600 89 121 1.0 7.0 0.00 0.00 0.00 82 1012.0
20260904210056 90 154 0.0 8.0 0.00 0.00 0.00 81 1012.2
20260904204552 91 68 2.0 5.0 0.00 0.00 0.00 80 1012.2
20260904203052 92 154 2.0 8.0 0.00 0.00 0.00 76 1012.3
20260904201552 94 151 2.0 7.0 0.00 0.00 0.00 75 1012.0
20260904200059 95 135 2.0 6.0 0.00 0.00 0.00 71 1012.1
20260904194555 94 181 1.0 8.0 0.00 0.00 0.00 73 1012.3
20260904193053 94 163 1.0 6.0 0.00 0.00 0.00 73 1012.5
20260904191548 93 101 0.0 9.0 0.00 0.00 0.00 72 1012.8
20260904190047 91 186 2.0 7.0 0.00 0.00 0.00 79 1012.9
20260904184549 91 245 1.0 8.0 0.00 0.09 0.00 80 1013.1
20260904183046 94 165 1.0 9.0 0.00 0.09 0.00 77 1013.2
20260904181550 94 146 1.0 7.0 0.00 0.09 0.00 76 1013.3
20260904180041 97 231 0.0 3.0 0.00 0.09 0.00 65 1013.4
20260904174537 96 146 0.0 7.0 0.00 0.53 0.00 67 1013.6
20260904173033 96 230 1.0 5.0 0.00 0.53 0.00 68 1013.7
20260904171536 93 211 0.0 5.0 0.00 0.53 0.00 72 1013.9
20260904170029 93 262 1.0 5.0 0.00 0.53 0.00 72 1014.0
20260904164530 94 150 0.0 3.0 0.00 0.53 0.00 72 1014.2
20260904163030 94 148 0.0 5.0 0.00 0.53 0.00 73 1014.3
20260904161532 94 226 0.0 6.0 0.00 0.53 0.00 73 1014.2
20260904160022 94 136 2.0 6.0 0.00 0.53 0.00 73 1014.7
20260904154519 93 212 1.0 4.0 0.00 0.53 0.00 76 1014.7
20260904153021 91 212 1.0 7.0 0.00 0.53 0.00 78 1014.6
20260904151513 91 259 2.0 5.0 0.00 0.53 0.00 76 1014.7
20260904150017 91 198 0.0 7.0 0.00 0.53 0.00 79 1014.5
20260904144506 90 238 1.0 7.0 0.00 0.53 0.00 81 1014.6
20260904143004 89 241 1.0 5.0 0.00 0.53 0.00 83 1014.4
20260904141558 88 139 1.0 8.0 0.00 0.53 0.00 85 1014.2
20260904140053 87 238 0.0 6.0 0.00 0.53 0.00 87 1014.1
20260904134549 87 217 1.0 5.0 0.00 0.53 0.00 86 1014.0
20260904133045 86 202 1.0 4.0 0.00 0.53 0.00 88 1014.1
20260904131554 85 224 0.0 2.0 0.00 0.53 0.00 91 1013.9
20260904130039 83 146 0.0 2.0 0.00 0.53 0.00 95 1013.8
20260904124532 81 174 0.0 1.0 0.00 0.53 0.00 98 1013.7
20260904123027 79 196 0.0 1.0 0.00 0.53 0.00 99 1013.5
20260904121525 78 195 0.0 1.0 0.00 0.53 0.00 99 1013.6
20260904120022 77 146 0.0 0.0 0.00 0.53 0.00 99 1013.3
20260904114520 77 146 0.0 0.0 0.00 0.53 0.00 99 1013.2
20260904113025 76 146 0.0 0.0 0.00 0.53 0.00 99 1013.1
20260904111518 76 146 0.0 0.0 0.00 0.53 0.00 99 1012.9
20260904110017 76 146 0.0 0.0 0.00 0.53 0.00 99 1012.8
20260904104517 76 146 0.0 0.0 0.00 0.53 0.00 99 1012.8
20260904103017 76 146 0.0 0.0 0.00 0.53 0.00 99 1012.6
20260904101516 76 146 0.0 0.0 0.00 0.53 0.00 99 1012.6
20260904100015 76 146 0.0 0.0 0.00 0.53 0.00 99 1012.3
20260904094514 76 146 0.0 0.0 0.00 0.53 0.00 99 1012.1
20260904093014 76 146 0.0 0.0 0.00 0.53 0.00 99 1012.2
20260904091514 76 146 0.0 0.0 0.00 0.53 0.00 98 1012.1
20260904090012 76 146 0.0 0.0 0.00 0.53 0.00 98 1011.9
20260904084512 76 146 0.0 0.0 0.00 0.53 0.00 98 1012.0
20260904083011 76 146 0.0 0.0 0.00 0.53 0.00 98 1011.9
20260904081510 77 147 0.0 0.0 0.00 0.53 0.00 98 1011.9
20260904080010 77 146 0.0 0.0 0.00 0.53 0.00 98 1011.8
20260904074519 77 146 0.0 0.0 0.00 0.53 0.00 98 1011.7
20260904073017 77 146 0.0 0.0 0.00 0.53 0.00 98 1011.7
20260904071506 77 146 0.0 0.0 0.00 0.53 0.00 98 1011.8
20260904070009 77 146 0.0 0.0 0.00 0.53 0.00 98 1011.9
20260904064513 77 146 0.0 0.0 0.00 0.53 0.00 98 1012.1
20260904063002 77 147 0.0 0.0 0.00 0.53 0.00 98 1012.2
20260904061600 77 146 0.0 0.0 0.00 0.53 0.00 98 1012.3
20260904060058 77 146 0.0 0.0 0.00 0.53 0.00 98 1012.4
20260904054556 77 146 0.0 0.0 0.00 0.53 0.00 98 1012.6
20260904053056 77 146 0.0 0.0 0.00 0.53 0.00 98 1012.7
20260904051554 77 146 0.0 0.0 0.00 0.53 0.00 97 1012.8
20260904050053 77 146 0.0 0.0 0.00 0.53 0.00 97 1012.8
20260904044604 77 147 0.0 0.0 0.00 0.53 0.00 97 1012.8
20260904043056 77 146 0.0 0.0 0.00 0.53 0.00 98 1012.9
20260904041558 77 146 0.0 0.0 0.00 0.53 0.00 97 1012.8